PIESAT-2 12 (62336 NORAD) Tracking and Keplerian Element Data

This shows tracking and keplerian element data for the satellite.

Feedback or suggestion? Click here.




ElementValue
Catalog62336
NamePIESAT-2 12
Epoch Orbit745
Epoch Day35.05745497
Epoch Year2025
RAAN344.4301
Inclination97.5127
Eccentricity0.0001967
Argument of Perigee88.1573
Mean Anonmoly271.9883
Mean Motion15.13407184
Decay Rate0.0002547
L11 62336U 24241D 25035.05745497 .00025470 00000+0 14262-2 0 9993
L22 62336 97.5127 344.4301 0001967 88.1573 271.9883 15.13407184 7455



Live tracking and technical data element details for PIESAT-2 12 (NORAD 62336). PIESAT-2 12 can be tracked NOW for your location showing map with azimuth and elevation plus other details from your city location.







IsCatalogInMostPopularTable: catalog: 62336, numindb: 8
Update: records affected: 1



GetName: 62336 PIESAT-2 12

Hit Count: updated at: Sun, 18 May 2025 22:54:24 GMT